Wind_Speed
13 13 13 13 13 12 11 10 10 11 11 11 11 11 11 10 9 9 8 8 8 7 7 7 7 6 7 7 7 8 8 8 8 7 7 7 7 7 7 7 6 6 6 5 6 6 6 5 5
13 13 13 13 13 11 10 10 10 11 11 11 11 11 11 10 10 9 9 9 8 8 8 7 7 6 7 7 7 7 8 7 7 7 6 6 6 6 6 6 6 5 5 5 5 5 5 5 6
12 12 12 13 12 11 10 10 10 11 11 11 11 11 11 10 10 9 8 8 8 8 7 7 7 7 7 7 7 7 7 7 7 6 6 6 5 5 6 5 5 5 5 5 5 5 5 6 5
12 12 12 12 11 10 10 11 11 12 11 11 11 11 11 10 10 9 8 7 7 7 7 6 7 7 7 7 7 7 6 6 5 6 6 5 5 6 5 5 5 5 5 5 5 5 5 6 6
11 13 13 11 11 11 11 11 12 12 12 13 12 11 10 10 9 9 8 7 7 7 7 6 6 6 6 6 6 6 5 5 5 5 5 5 5 5 5 5 5 5 5 5 5 4 5 5 6
11 13 12 11 11 11 11 11 12 12 12 12 12 11 10 9 9 8 8 8 7 6 6 6 5 5 4 4 5 5 5 4 4 4 5 4 4 5 5 5 5 5 5 5 5 5 5 6 6
11 12 11 11 11 11 11 11 12 12 11 11 11 11 10 9 9 8 8 7 6 5 5 4 4 4 4 4 4 4 4 3 3 3 3 3 3 3 4 4 5 5 5 5 5 5 5 6 6
10 11 11 11 11 10 10 11 11 11 10 10 10 10 9 9 8 8 7 6 6 5 5 3 3 3 3 3 3 3 3 3 2 3 3 3 3 3 3 4 5 6 6 6 6 6 6 7 7
11 11 10 10 10 10 9 10 10 10 9 9 9 9 8 8 8 8 7 6 5 5 4 2 2 2 1 1 2 2 2 2 2 2 3 4 4 4 4 4 5 5 6 6 7 7 7 7 8
11 10 9 9 9 9 9 9 9 10 9 8 8 8 8 8 8 7 7 6 5 4 3 2 2 1 0 0 1 2 2 2 2 2 2 3 4 4 5 5 5 6 6 7 7 8 8 8 9
10 9 9 9 9 9 9 9 9 9 9 8 7 6 7 7 7 7 7 6 6 5 4 3 2 1 0 1 1 2 2 2 3 3 3 3 3 4 5 6 6 7 7 8 8 8 9 9 9
9 8 8 9 9 9 9 8 8 8 8 8 7 7 7 7 7 7 7 7 7 6 5 3 2 1 1 1 2 2 2 2 3 3 3 3 4 4 5 6 7 7 8 8 8 9 9 10 10
9 8 8 8 9 8 8 8 8 7 7 8 7 7 7 7 6 6 6 6 6 6 6 5 4 3 2 2 2 3 3 2 3 3 4 4 5 5 6 7 6 7 8 9 9 10 11 11 11
8 8 8 8 8 8 8 8 8 8 7 7 7 7 7 6 6 5 5 5 6 5 5 5 5 4 3 3 3 4 4 3 3 3 3 4 5 6 6 7 7 8 9 9 10 11 11 12 12
6 7 7 7 8 8 8 8 7 7 7 7 7 7 7 6 6 5 5 5 6 5 5 5 5 5 4 4 4 4 5 4 4 4 4 5 5 6 7 8 8 8 9 10 10 11 11 12 12
4 5 5 6 6 7 7 7 7 7 7 7 7 7 7 6 6 5 5 5 6 6 5 6 5 5 5 5 5 5 5 5 5 5 6 6 6 7 8 8 8 9 10 10 10 11 12 12 13
3 4 4 4 5 5 6 6 6 6 7 7 7 7 7 6 6 6 6 5 5 6 6 6 5 5 6 6 6 6 6 6 6 6 7 7 7 7 8 8 9 9 10 11 11 11 12 13 13
2 1 2 4 4 4 5 6 6 6 7 7 8 8 7 6 6 6 6 6 5 5 6 6 6 6 6 6 6 6 6 6 7 7 8 7 7 7 8 8 9 10 11 11 11 12 12 13 14
3 1 2 4 4 4 4 5 6 7 7 7 8 8 7 7 6 7 7 7 6 6 6 6 7 7 6 6 6 7 7 7 8 8 8 8 8 8 8 8 9 10 11 11 11 11 12 14 14
3 2 3 5 4 4 4 5 6 8 8 8 8 7 7 7 7 7 7 7 7 7 7 7 7 8 7 7 7 8 8 8 8 9 9 9 9 9 9 9 10 10 10 10 11 11 12 13 14
3 3 4 5 4 5 5 6 7 8 8 8 7 7 7 7 7 7 7 7 7 7 7 8 8 8 8 8 8 9 9 9 9 9 9 10 10 10 10 11 11 10 10 10 11 12 12 12 14
5 5 4 4 4 6 5 6 8 8 8 8 8 7 6 7 7 7 8 7 7 7 8 8 8 9 8 8 9 9 9 10 11 11 11 12 12 12 12 11 11 11 11 11 11 12 12 13 14
6 6 5 5 5 6 7 6 8 9 9 8 8 7 7 7 7 8 9 8 8 8 9 9 9 9 9 9 9 9 10 10 11 12 12 13 13 12 12 12 12 12 12 12 12 11 12 14 14
8 7 7 7 7 7 8 7 8 9 10 9 9 8 8 8 8 9 10 9 9 9 9 10 10 9 9 9 9 10 10 11 12 12 13 13 13 13 12 12 13 13 13 12 13 13 13 14 14
10 8 7 7 8 9 9 8 8 9 9 9 9 8 9 9 9 9 10 10 10 9 9 10 10 10 10 9 10 11 11 11 12 12 13 13 13 13 13 13 14 14 14 13 13 13 14 14 14
11 9 9 9 9 10 11 9 9 9 9 9 9 9 9 9 9 9 9 10 10 10 10 10 11 10 10 10 10 11 11 12 12 13 13 13 14 14 14 15 15 15 15 14 14 14 14 15 15
12 11 10 11 10 10 11 11 10 9 9 10 10 10 9 9 10 10 11 11 10 10 11 11 11 11 11 11 11 12 12 12 13 13 14 14 14 15 15 15 16 15 15 16 15 14 14 15 16
13 12 12 11 12 10 11 11 10 9 10 10 10 10 10 10 11 11 11 11 10 11 11 11 11 11 12 12 12 13 13 13 13 14 14 14 15 15 15 16 16 15 15 15 15 15 15 16 17
15 14 14 13 12 11 11 12 12 11 11 11 11 11 11 11 11 11 11 11 11 11 11 12 12 12 13 13 13 13 13 13 14 14 15 15 15 15 16 15 15 15 15 15 15 15 16 16 17
18 17 15 15 15 13 12 13 14 12 12 12 12 12 12 11 11 11 11 11 11 12 12 12 13 13 13 13 13 13 13 13 13 14 15 16 16 16 16 15 16 16 16 16 16 16 16 16 16
Wind_Direction
81 79 79 81 78 78 80 81 82 85 83 82 82 82 80 82 87 87 89 91 94 97 101 103 103 105 107 112 122 126 130 129 130 131 133 136 138 136 142 146 153 157 156 160 167 169 171 171 173
80 79 79 81 79 78 78 81 82 84 83 81 81 81 80 80 82 83 86 88 91 98 104 108 108 112 117 119 122 125 129 129 130 137 143 144 143 144 144 149 154 155 161 167 169 168 171 176 181
81 79 78 80 82 79 81 82 83 83 80 78 79 79 78 79 77 78 84 89 92 95 104 111 112 113 118 120 122 122 126 130 132 142 149 151 151 152 152 152 159 162 167 173 169 173 179 181 187
82 79 74 75 75 77 80 81 83 84 79 78 79 77 75 76 75 76 79 85 89 95 100 106 111 111 114 119 122 123 126 127 130 139 147 152 156 158 160 163 165 168 171 172 175 183 184 188 196
80 76 70 68 69 73 75 79 82 81 77 78 79 78 75 74 72 71 72 79 85 90 93 95 105 110 110 115 123 128 130 130 132 137 145 154 165 171 175 177 178 178 183 187 191 194 191 195 204
83 79 76 70 68 71 74 76 78 77 77 77 76 76 75 73 71 69 71 75 81 81 87 96 110 117 118 116 125 133 135 139 144 152 158 163 172 182 186 191 195 196 198 199 202 209 210 200 209
84 86 82 74 70 69 72 75 79 78 78 76 76 75 74 72 68 67 68 70 73 76 89 91 103 118 123 130 133 142 147 154 159 174 183 184 185 189 197 205 209 210 208 210 212 218 218 214 218
91 90 81 75 74 72 73 74 76 78 77 75 76 75 70 68 64 64 64 65 65 68 84 93 100 114 128 141 150 153 162 169 185 200 209 213 214 214 216 222 214 210 214 219 221 223 225 225 225
96 92 84 77 75 75 76 74 71 73 76 76 73 69 64 59 57 61 61 61 60 60 70 83 103 116 131 156 172 183 193 202 215 220 226 231 234 232 236 236 226 222 225 229 227 228 231 230 230
100 93 85 78 75 74 72 69 65 67 71 70 65 62 59 55 53 55 56 53 52 54 52 57 63 75 134 186 197 226 231 233 241 242 241 242 243 243 244 241 236 232 236 238 237 237 235 234 235
103 95 85 77 74 72 70 67 64 65 63 60 54 53 58 54 52 49 47 46 49 54 49 54 66 87 295 303 291 272 266 250 257 256 251 247 244 244 244 246 247 244 244 245 241 238 238 236 239
96 95 88 76 74 72 69 65 66 64 62 56 53 54 61 56 52 52 45 41 41 40 42 48 42 12 13 0 331 310 295 273 263 264 264 262 261 262 261 260 258 253 253 251 248 246 242 241 244
90 88 83 74 70 68 66 61 58 52 56 52 49 50 53 52 49 46 40 32 28 27 28 25 19 11 10 355 336 326 315 298 282 274 272 273 271 271 274 276 269 261 260 257 252 247 247 248 249
89 82 76 64 61 58 61 58 51 45 53 53 50 47 47 46 43 38 31 25 21 19 19 19 15 0 352 341 345 344 334 312 300 302 297 291 288 287 283 281 274 268 266 263 258 252 250 252 253
92 83 71 57 52 51 56 49 45 42 48 49 45 43 42 38 34 29 21 12 10 12 14 9 2 354 344 343 344 337 335 324 304 311 312 303 300 294 288 285 279 273 270 266 261 256 254 255 253
94 72 53 45 42 43 50 41 33 34 36 33 33 31 28 29 23 17 10 4 4 5 5 360 0 359 351 348 350 341 336 330 314 308 310 307 303 296 290 285 282 278 277 273 266 256 254 255 256
79 59 46 34 33 35 41 32 25 26 23 19 17 15 10 10 12 9 6 3 359 358 360 359 358 357 357 352 347 344 339 331 320 317 315 312 305 298 293 289 285 280 278 275 270 264 258 256 257
172 86 33 19 11 18 27 19 12 12 14 9 3 0 358 359 355 354 1 359 354 352 354 355 352 352 350 346 340 337 334 330 326 320 317 314 312 307 301 291 286 281 280 276 272 265 262 258 260
201 191 351 340 337 351 3 3 0 358 358 354 349 346 348 349 346 350 355 353 349 347 346 345 344 342 342 342 340 336 333 330 328 326 324 322 316 312 306 298 289 283 280 277 274 267 263 262 262
219 251 305 315 321 334 344 346 342 340 343 346 345 344 346 343 344 345 344 343 342 342 341 341 341 339 338 339 339 334 330 329 327 327 326 325 322 315 310 303 301 290 281 277 273 271 268 264 259
246 271 288 301 310 329 336 342 337 333 337 341 342 341 343 344 346 348 343 345 341 341 343 342 341 340 337 335 333 334 332 327 325 323 323 324 322 318 311 304 302 295 287 280 278 275 272 268 266
253 265 281 304 324 334 337 331 328 329 333 336 340 337 336 340 341 343 339 339 339 338 338 339 339 338 336 333 333 333 332 329 326 326 323 321 321 317 312 310 307 300 293 286 281 278 273 273 272
242 260 279 295 306 322 331 328 319 325 330 333 331 330 329 333 334 336 335 332 330 330 333 333 334 334 333 333 331 331 331 330 329 327 325 322 320 317 313 312 312 309 301 291 285 282 280 277 275
249 266 284 294 302 305 315 319 312 315 319 321 318 318 318 321 326 327 329 327 325 324 327 329 329 329 330 332 332 331 331 331 331 329 327 325 323 319 316 316 318 312 306 300 289 281 283 280 278
250 264 282 292 297 298 307 312 308 307 311 313 312 312 312 314 318 320 325 324 323 321 321 324 327 327 327 327 328 329 329 329 328 329 327 325 322 320 318 318 317 313 305 300 292 287 284 284 280
249 256 262 271 279 291 305 310 313 311 307 308 308 306 308 311 314 317 322 321 319 316 316 321 323 324 324 323 325 327 326 326 326 325 325 323 321 320 318 318 318 315 309 302 294 292 287 284 282
248 255 261 270 278 285 294 303 313 313 307 307 307 306 303 305 309 313 318 317 314 312 314 317 321 322 321 320 321 324 324 323 323 323 322 322 322 320 318 318 317 314 310 307 299 295 291 288 285
244 255 262 265 271 278 291 298 304 305 305 304 304 303 301 300 305 310 312 313 312 310 311 313 317 318 320 318 316 317 320 321 322 321 319 320 320 320 318 318 317 314 309 308 303 299 298 294 290
249 255 261 264 264 273 285 291 296 297 300 300 300 300 300 298 299 306 309 308 309 309 311 313 314 314 316 317 316 316 316 318 319 320 321 322 321 320 319 318 316 315 311 309 305 300 299 297 293
249 252 259 264 270 272 276 286 291 292 295 297 296 296 295 293 293 299 306 307 307 308 309 309 310 310 310 312 313 314 315 316 317 319 320 322 323 321 321 320 316 314 314 310 307 305 304 301 296
Height
5899 5899 5898 5899 5900 5900 5899 5898 5896 5895 5894 5893 5893 5892 5891 5891 5892 5893 5890 5888 5888 5888 5887 5887 5887 5887 5887 5887 5887 5887 5887 5887 5888 5888 5889 5889 5890 5890 5891 5891 5892 5892 5893 5894 5894 5894 5895 5896 5897
5901 5900 5901 5901 5902 5901 5900 5899 5898 5897 5896 5894 5894 5893 5892 5892 5891 5891 5890 5889 5889 5888 5888 5888 5888 5888 5888 5888 5888 5888 5888 5888 5888 5889 5889 5889 5890 5890 5891 5891 5892 5893 5893 5894 5894 5894 5895 5896 5897
5902 5902 5903 5903 5903 5903 5902 5900 5899 5897 5896 5895 5895 5894 5893 5893 5892 5891 5891 5890 5890 5889 5889 5888 5888 5888 5888 5888 5888 5888 5889 5889 5889 5889 5890 5890 5890 5891 5891 5892 5892 5893 5893 5894 5894 5894 5895 5896 5896
5905 5905 5906 5906 5905 5904 5903 5901 5900 5899 5898 5897 5896 5895 5894 5894 5893 5892 5891 5891 5891 5890 5890 5889 5889 5889 5889 5889 5889 5889 5889 5890 5890 5890 5890 5890 5891 5891 5892 5892 5892 5893 5893 5894 5894 5894 5895 5895 5896
5907 5907 5909 5907 5906 5905 5904 5902 5901 5900 5899 5898 5897 5896 5895 5895 5894 5893 5892 5892 5891 5891 5890 5890 5890 5890 5890 5890 5889 5890 5890 5890 5890 5890 5890 5891 5891 5891 5891 5892 5892 5893 5893 5893 5894 5894 5894 5895 5896
5909 5910 5912 5910 5908 5907 5906 5904 5903 5901 5900 5899 5898 5898 5897 5896 5895 5894 5893 5893 5892 5892 5891 5891 5891 5891 5890 5890 5890 5890 5890 5890 5890 5890 5890 5890 5891 5891 5891 5892 5892 5892 5893 5893 5893 5894 5893 5894 5895
5912 5912 5912 5911 5910 5909 5908 5906 5904 5903 5902 5901 5900 5899 5898 5897 5896 5895 5894 5893 5893 5892 5892 5891 5891 5891 5891 5891 5890 5890 5890 5890 5890 5890 5890 5890 5890 5890 5890 5891 5891 5892 5892 5893 5893 5893 5893 5894 5894
5913 5914 5914 5913 5912 5910 5909 5907 5906 5905 5904 5903 5901 5900 5899 5899 5897 5896 5895 5894 5894 5893 5893 5892 5892 5891 5891 5891 5891 5890 5890 5890 5889 5889 5889 5889 5889 5889 5889 5889 5890 5891 5891 5891 5892 5892 5892 5893 5893
5914 5917 5915 5914 5913 5912 5910 5908 5907 5906 5905 5904 5903 5901 5901 5899 5898 5897 5896 5895 5895 5894 5893 5892 5892 5892 5891 5891 5891 5890 5890 5889 5889 5888 5888 5888 5888 5888 5888 5889 5889 5889 5890 5890 5890 5891 5891 5891 5892
5916 5917 5916 5915 5914 5912 5911 5910 5908 5907 5906 5905 5904 5903 5901 5900 5899 5898 5897 5896 5895 5894 5893 5892 5892 5892 5891 5891 5890 5890 5889 5889 5888 5888 5887 5887 5887 5887 5887 5888 5888 5888 5888 5888 5888 5888 5889 5889 5890
5917 5917 5916 5915 5914 5913 5912 5910 5909 5908 5907 5906 5905 5904 5903 5902 5901 5900 5898 5897 5896 5895 5894 5892 5892 5891 5891 5890 5890 5889 5888 5888 5887 5887 5887 5887 5886 5886 5886 5886 5886 5886 5886 5886 5886 5887 5887 5887 5888
5919 5918 5917 5916 5915 5914 5913 5912 5911 5909 5909 5907 5906 5905 5904 5903 5902 5901 5899 5898 5897 5896 5894 5893 5892 5892 5891 5890 5889 5888 5887 5887 5886 5886 5886 5886 5886 5885 5885 5885 5885 5885 5885 5885 5885 5885 5885 5885 5885
5920 5919 5918 5917 5916 5915 5914 5913 5912 5910 5909 5908 5907 5906 5905 5904 5903 5901 5901 5899 5898 5896 5895 5894 5893 5892 5891 5890 5889 5888 5887 5886 5886 5886 5885 5885 5884 5884 5884 5883 5883 5883 5883 5883 5883 5882 5883 5883 5883
5921 5921 5920 5918 5917 5916 5915 5914 5913 5911 5910 5909 5908 5907 5906 5905 5903 5902 5901 5900 5899 5897 5896 5894 5893 5892 5891 5890 5888 5888 5887 5886 5885 5885 5884 5884 5883 5882 5882 5881 5881 5881 5880 5880 5880 5880 5880 5881 5881
5922 5922 5921 5920 5919 5918 5917 5916 5914 5912 5911 5910 5909 5908 5906 5905 5904 5903 5902 5901 5899 5897 5896 5894 5893 5891 5890 5889 5888 5887 5886 5885 5884 5884 5883 5882 5881 5881 5880 5879 5879 5878 5878 5878 5877 5877 5878 5878 5878
5923 5923 5923 5922 5920 5919 5919 5918 5915 5914 5912 5911 5910 5908 5907 5906 5905 5903 5902 5901 5899 5898 5896 5894 5893 5891 5890 5889 5887 5886 5885 5884 5884 5883 5882 5881 5880 5879 5878 5877 5877 5876 5876 5876 5875 5875 5875 5875 5875
5924 5925 5924 5923 5921 5920 5919 5918 5916 5914 5913 5911 5910 5909 5907 5906 5905 5903 5902 5901 5899 5898 5896 5894 5893 5891 5890 5889 5887 5886 5884 5883 5882 5881 5881 5879 5878 5877 5876 5875 5874 5874 5874 5873 5873 5872 5872 5872 5872
5926 5925 5924 5923 5921 5920 5919 5918 5916 5914 5913 5911 5910 5909 5908 5906 5905 5903 5902 5900 5899 5897 5896 5894 5893 5891 5890 5888 5887 5885 5884 5882 5881 5880 5879 5877 5876 5875 5874 5873 5872 5871 5871 5870 5870 5869 5869 5869 5869
5924 5924 5924 5923 5921 5920 5919 5918 5917 5915 5913 5912 5910 5909 5907 5906 5904 5903 5901 5900 5899 5897 5895 5894 5892 5890 5889 5888 5886 5885 5883 5882 5880 5879 5877 5876 5875 5873 5872 5871 5870 5869 5868 5867 5866 5866 5866 5866 5866
5923 5923 5924 5923 5921 5920 5919 5918 5916 5914 5913 5911 5910 5909 5907 5905 5904 5902 5901 5899 5898 5896 5895 5893 5891 5890 5888 5887 5885 5884 5882 5881 5879 5877 5876 5874 5873 5871 5870 5869 5867 5866 5865 5864 5864 5863 5863 5862 5862
5922 5923 5922 5921 5920 5920 5919 5918 5917 5914 5913 5911 5910 5908 5906 5905 5903 5902 5900 5899 5897 5895 5894 5892 5891 5889 5888 5886 5885 5883 5881 5879 5878 5876 5874 5873 5871 5869 5868 5866 5865 5863 5862 5862 5861 5860 5859 5859 5859
5921 5921 5921 5920 5920 5920 5919 5919 5916 5914 5912 5911 5909 5907 5906 5904 5903 5901 5900 5898 5896 5895 5893 5892 5890 5889 5887 5885 5884 5882 5880 5878 5876 5874 5872 5871 5869 5867 5865 5864 5862 5860 5859 5858 5858 5857 5856 5855 5855
5919 5919 5919 5919 5919 5919 5918 5918 5917 5913 5911 5910 5908 5906 5905 5904 5902 5900 5899 5897 5896 5894 5892 5891 5889 5887 5886 5884 5882 5880 5879 5877 5874 5872 5870 5868 5866 5864 5863 5861 5860 5858 5856 5855 5854 5853 5853 5852 5851
5917 5918 5917 5917 5917 5918 5917 5917 5916 5913 5910 5909 5907 5905 5904 5902 5901 5899 5898 5896 5895 5893 5891 5890 5888 5886 5884 5882 5881 5879 5877 5875 5872 5870 5868 5866 5864 5862 5860 5859 5857 5855 5853 5852 5851 5850 5849 5848 5847
5915 5916 5918 5918 5918 5917 5915 5914 5914 5910 5908 5907 5905 5904 5902 5901 5900 5898 5896 5895 5893 5891 5890 5888 5886 5885 5883 5881 5879 5877 5875 5873 5871 5868 5866 5864 5862 5860 5858 5856 5854 5852 5850 5848 5847 5846 5845 5844 5843
5912 5914 5916 5917 5917 5916 5913 5911 5911 5908 5906 5904 5903 5902 5901 5899 5898 5896 5895 5893 5892 5890 5888 5887 5885 5883 5881 5879 5877 5875 5873 5871 5869 5866 5864 5862 5859 5857 5855 5853 5851 5849 5847 5845 5843 5842 5841 5839 5838
5910 5910 5912 5913 5913 5913 5912 5909 5907 5905 5904 5902 5901 5900 5899 5897 5896 5895 5893 5891 5890 5888 5887 5885 5883 5881 5879 5877 5876 5874 5871 5869 5866 5864 5862 5860 5857 5855 5853 5850 5848 5846 5844 5842 5840 5839 5837 5835 5834
5907 5908 5909 5910 5910 5910 5910 5908 5906 5903 5901 5900 5899 5897 5896 5895 5894 5892 5891 5889 5888 5887 5885 5883 5881 5879 5877 5875 5873 5871 5869 5867 5864 5862 5859 5857 5855 5852 5850 5847 5845 5843 5840 5838 5836 5835 5833 5831 5830
5903 5904 5904 5906 5906 5907 5907 5908 5903 5900 5899 5898 5896 5895 5894 5893 5892 5890 5889 5887 5886 5884 5883 5881 5879 5877 5875 5873 5871 5869 5866 5864 5862 5859 5857 5855 5852 5850 5847 5845 5842 5840 5837 5835 5833 5831 5829 5827 5825
5899 5900 5901 5903 5902 5902 5903 5905 5899 5897 5896 5895 5894 5892 5891 5890 5889 5888 5886 5885 5884 5882 5880 5879 5876 5874 5872 5870 5868 5866 5864 5861 5859 5857 5855 5852 5850 5847 5844 5842 5839 5836 5834 5831 5829 5827 5825 5823 5821